Theta_e
307 307 307 307 306 305 300 298 292 304 301 293 288 288 293 298 298 300 297 296 294 291 292 289 290 291 294 299 296 290 290 285 281 286 292 293 289 286 284 276 278 278 277 282
306 307 306 306 306 305 296 295 296 303 301 288 287 292 296 297 297 296 296 294 295 294 290 285 292 293 299 299 296 291 291 284 278 281 287 290 288 289 288 284 280 278 281 282
306 306 306 306 306 305 297 293 289 292 294 292 290 289 291 292 298 295 296 294 294 291 289 291 288 291 298 298 297 305 296 284 283 279 283 286 285 288 289 285 275 282 283 285
305 306 306 306 305 305 295 290 288 289 285 289 290 289 290 289 290 294 293 291 292 289 282 286 287 291 293 295 298 293 290 283 284 286 287 288 288 287 288 286 286 282 286 286
305 306 306 306 305 304 294 288 287 289 287 290 288 289 287 290 291 291 289 289 291 290 285 286 285 289 288 288 291 288 288 282 283 283 288 288 286 288 288 288 288 287 288 287
304 305 306 306 306 301 292 291 291 289 288 287 286 286 289 291 291 293 294 292 290 289 291 293 293 292 290 289 287 285 284 278 275 278 285 284 277 284 287 288 289 290 285 289
303 304 305 305 306 300 291 290 289 285 282 287 287 290 291 290 290 288 293 292 289 293 296 294 291 288 289 289 289 289 284 280 275 279 278 268 281 292 292 288 288 289 290 290
303 304 304 304 304 304 293 291 290 286 280 286 288 290 289 289 289 288 290 293 293 293 291 285 281 281 282 288 291 287 288 280 271 269 275 279 283 289 283 279 284 290 290 292
302 303 303 304 304 304 292 290 290 288 283 282 291 288 287 285 283 285 289 292 293 291 286 283 278 276 282 282 285 289 285 282 275 276 273 267 281 291 292 290 280 292 291 291
301 302 303 303 304 303 292 290 289 291 286 289 289 286 285 288 285 283 284 289 289 288 281 279 278 280 285 280 280 279 278 276 271 269 273 278 286 291 292 276 280 292 292 292
300 301 302 303 303 303 292 288 290 289 285 287 292 293 289 288 286 282 284 283 285 283 279 280 281 280 281 280 282 279 277 272 272 275 274 272 291 289 283 288 294 294 293 293
300 301 302 302 303 303 296 285 291 291 287 285 290 294 295 294 293 287 285 284 284 285 280 280 279 280 279 279 273 283 275 280 280 280 277 286 291 291 295 296 294 293 293 293
301 301 302 302 302 303 298 288 288 287 284 285 286 289 293 296 295 295 286 286 289 287 288 284 281 279 280 274 278 281 284 286 282 284 286 288 291 294 297 296 294 294 294 293
301 301 302 302 302 302 301 290 288 288 285 281 285 294 293 297 295 295 294 292 291 290 288 285 287 281 285 283 286 282 285 286 285 284 289 291 293 295 296 296 295 294 293 292
301 301 302 302 302 302 295 289 289 290 287 282 285 290 292 292 294 294 293 292 289 288 286 283 283 285 288 288 287 285 285 284 286 284 291 291 292 295 296 294 292 292 289 288
301 302 302 302 302 300 288 288 292 292 295 289 282 288 288 290 290 290 289 290 289 288 287 285 289 293 291 287 285 286 289 294 295 292 296 295 296 295 296 293 292 290 289 289
302 302 301 302 301 291 284 284 293 296 290 285 282 280 287 290 290 290 289 290 290 289 288 286 287 286 293 289 285 287 291 295 296 297 296 293 294 291 294 293 291 291 290 290
301 301 301 301 300 295 287 290 299 296 286 286 280 281 284 290 287 286 288 288 289 288 287 286 286 288 292 286 290 292 295 294 296 296 297 295 295 295 292 292 290 288 288 288
301 300 299 294 290 284 287 303 301 290 287 282 282 280 278 288 285 285 285 287 284 287 284 285 289 286 285 288 289 291 292 294 294 296 296 295 293 292 291 290 289 287 287 288
299 294 290 287 290 299 300 291 287 284 284 283 281 283 281 284 283 283 284 284 282 281 286 292 288 288 289 292 292 292 295 296 296 293 291 291 290 289 289 289 289 290 289 290
292 288 288 294 301 292 288 284 283 284 285 284 283 283 280 285 281 281 284 282 282 280 282 287 287 286 287 290 290 295 296 298 297 295 294 292 290 289 289 289 291 292 292 290
293 292 293 293 291 287 284 282 284 285 282 284 283 284 284 284 287 284 284 283 283 280 288 288 285 285 288 289 292 295 297 298 295 294 292 291 291 291 291 291 291 291 292 292
294 290 288 286 284 280 280 279 280 281 285 286 286 285 286 285 287 284 286 283 282 287 287 285 285 286 288 289 293 297 298 296 295 293 292 291 291 292 292 292 293 292 292 292
287 285 277 280 279 281 282 281 282 286 286 286 286 285 285 286 285 285 283 285 284 279 281 285 283 286 288 290 296 298 294 294 294 291 291 290 291 292 293 293 294 294 293 294
285 285 279 280 284 284 285 285 284 286 286 288 287 285 284 282 284 284 282 281 277 283 283 281 285 287 288 292 297 296 294 294 293 292 291 291 292 292 292 293 294 294 294 293
286 285 283 284 282 281 282 283 283 285 285 290 289 285 282 282 281 281 281 280 276 280 285 287 287 288 289 295 297 295 295 294 293 293 292 292 292 292 292 294 294 293 293 293
282 281 283 282 282 281 281 283 283 284 285 284 289 284 282 282 280 280 282 281 284 287 288 288 288 288 292 297 296 296 295 294 293 293 292 292 294 294 293 291 293 294 294 293
Wind_Speed
26 29 30 31 32 34 9 2 3 5 4 7 2 2 3 6 2 7 4 5 4 2 1 2 2 2 3 6 3 3 2 4 4 9 8 2 3 4 5 6 5 3 4 16
25 27 29 31 31 27 3 3 3 5 5 4 3 5 3 4 7 5 4 4 4 3 2 3 2 3 2 6 3 1 2 2 4 10 6 3 3 3 3 3 4 5 8 14
23 26 28 31 31 28 2 4 4 7 7 2 3 3 4 4 6 4 5 3 5 4 3 4 2 4 2 7 2 4 4 2 7 8 7 1 5 7 7 4 4 12 23 25
23 24 27 30 32 28 3 5 1 2 3 5 4 2 2 4 6 6 8 4 4 3 1 4 1 2 5 5 5 3 3 5 5 8 7 8 14 14 17 18 18 9 25 20
21 22 25 28 33 24 7 4 3 4 0 3 2 5 4 4 4 5 4 3 3 3 4 7 4 3 4 6 5 3 2 4 2 5 12 10 11 17 20 15 14 13 15 20
18 20 22 25 28 16 5 2 2 3 5 3 3 1 2 2 2 1 3 1 2 2 3 5 9 7 3 5 3 2 1 2 3 5 4 8 7 7 4 0 5 6 8 16
14 17 20 22 22 12 2 0 1 3 2 2 1 3 2 2 3 2 2 2 2 1 6 4 2 2 3 3 2 5 4 2 3 5 5 2 6 2 5 4 11 8 13 8
11 14 17 19 20 18 4 1 3 3 1 1 2 1 2 5 4 2 2 3 1 4 5 3 5 5 2 4 3 4 3 4 2 1 3 11 5 4 1 2 22 7 8 16
7 10 13 16 18 18 3 2 0 3 4 4 1 1 0 2 2 5 2 4 3 5 3 3 1 2 2 4 5 4 5 5 5 1 2 6 5 2 10 6 12 10 16 17
4 7 10 12 15 17 3 1 3 3 1 4 3 3 3 4 2 1 4 6 6 4 3 3 2 2 0 2 2 3 5 3 3 2 5 8 5 6 6 3 7 19 15 18
1 5 8 10 12 14 4 2 4 3 1 6 5 3 4 2 3 4 3 5 4 4 5 2 2 1 2 2 4 2 3 2 3 1 3 9 3 8 2 8 19 19 15 21
2 3 5 8 10 11 5 2 2 1 3 6 2 5 4 5 8 6 1 5 4 5 5 1 2 2 0 3 4 1 3 7 4 8 9 5 11 5 9 13 15 15 17 15
5 3 5 6 7 8 5 1 2 3 3 5 3 4 4 2 8 6 5 3 3 3 3 4 2 2 4 2 5 2 4 4 4 2 6 6 7 13 8 15 17 12 18 18
6 4 4 5 6 6 6 0 2 3 1 1 7 2 4 2 6 7 5 5 4 5 3 2 3 2 5 4 4 5 6 0 5 7 13 13 12 13 14 16 15 14 18 11
7 5 4 5 7 7 3 2 3 2 3 3 6 6 3 4 5 8 5 6 4 2 2 2 4 3 2 2 1 5 3 4 2 6 13 15 15 15 16 15 14 14 13 12
8 6 4 5 4 5 3 2 1 3 2 0 4 4 4 4 4 6 4 5 3 3 5 4 3 2 3 2 3 6 5 4 8 9 11 16 15 13 14 14 12 11 12 12
7 5 4 4 3 2 2 4 2 5 2 2 5 6 5 4 3 2 3 2 2 4 3 3 3 2 4 2 5 2 5 9 10 11 12 6 8 14 11 10 11 12 11 10
6 4 1 3 6 4 3 4 11 4 2 2 2 5 5 4 3 1 1 3 1 2 2 1 2 0 2 5 7 7 7 9 11 8 8 10 12 10 9 10 9 10 10 11
6 2 2 3 2 0 4 3 9 2 3 1 2 2 4 4 2 1 2 2 1 1 2 2 3 1 6 6 7 6 8 8 12 11 10 11 9 9 9 9 10 9 10 10
6 3 2 2 4 6 9 3 3 2 2 1 3 1 4 2 2 3 2 2 1 1 2 3 2 4 6 7 7 6 8 9 9 10 10 8 10 9 10 10 9 9 10 8
2 3 3 2 3 2 2 1 2 2 3 3 4 5 3 2 2 3 1 1 0 1 4 3 2 3 4 5 6 6 6 6 4 3 5 6 8 8 8 10 11 10 8 6
4 3 2 1 2 2 2 3 2 4 5 3 4 5 5 3 2 2 1 2 1 4 3 2 2 4 4 4 7 7 6 3 5 6 7 8 8 8 8 9 11 8 7 7
2 2 2 2 2 3 6 7 4 3 4 4 3 3 3 0 1 1 2 2 4 2 2 2 4 3 4 5 5 5 6 6 5 6 7 7 7 8 8 10 9 5 9 10
3 4 4 5 5 5 6 4 4 4 3 3 3 2 4 3 3 3 3 4 3 2 2 3 4 3 5 5 3 3 5 5 6 7 6 7 7 8 10 10 9 8 6 8
3 3 5 7 4 3 3 3 2 2 2 2 2 2 2 1 2 3 0 2 1 3 2 4 4 3 3 4 4 5 4 5 7 5 5 6 8 8 9 7 6 8 8 5
2 4 3 3 0 3 1 2 2 1 2 1 2 2 1 4 3 3 5 4 6 4 4 4 2 2 2 2 3 5 5 5 4 4 5 5 7 7 6 8 10 12 8 6
3 3 2 1 2 4 2 2 2 1 2 3 2 3 8 2 2 3 4 5 4 4 3 3 3 2 2 4 6 5 5 6 5 5 6 4 4 4 7 9 13 12 9 5
Wind_Direction
353 352 351 351 352 347 38 44 44 320 4 51 31 67 346 342 332 24 54 79 77 72 57 18 349 66 59 5 355 39 340 149 253 237 263 289 188 190 133 125 260 214 167 266
353 353 351 351 352 358 334 51 278 325 53 83 2 324 4 51 29 27 31 56 50 18 47 57 5 31 142 43 74 47 210 293 330 334 354 2 77 161 136 109 65 202 260 270
354 355 353 353 351 352 64 62 23 339 39 21 88 21 352 29 7 54 54 75 60 60 32 5 337 338 316 343 278 327 117 158 188 232 225 287 301 303 285 199 251 277 252 282
357 357 358 355 351 347 82 25 50 184 349 355 29 35 1 22 10 6 31 45 57 82 87 336 321 261 325 309 314 84 100 241 216 250 253 245 265 274 267 251 254 239 280 276
358 0 4 1 354 346 75 75 54 0 25 298 41 7 7 22 347 22 357 67 342 176 177 182 242 229 202 241 340 66 0 262 296 270 259 260 263 258 261 265 268 267 276 288
359 3 9 8 4 6 68 340 4 104 320 355 71 325 320 3 326 8 66 310 112 120 206 226 230 217 216 240 258 258 131 95 50 271 358 305 295 240 207 148 224 258 280 280
0 5 11 13 12 32 104 38 111 66 310 52 104 326 321 355 340 271 340 27 119 292 323 300 351 32 288 181 289 169 136 104 107 280 355 296 243 156 164 229 276 257 256 300
358 6 12 13 14 17 71 356 82 94 312 251 305 337 320 332 320 284 299 359 354 312 30 17 1 350 17 10 37 139 65 106 345 137 284 282 293 125 65 196 303 308 2 332
0 6 13 15 13 14 67 41 246 96 110 248 306 293 322 265 315 338 291 321 330 53 75 64 85 285 323 325 345 128 75 66 118 70 269 256 237 143 324 303 294 360 345 326
5 4 14 16 15 14 69 7 14 83 97 263 169 208 205 125 110 230 309 336 360 38 62 76 130 275 306 291 281 315 332 349 168 213 245 273 251 319 314 57 281 315 307 295
15 2 7 10 12 16 58 270 353 94 190 272 209 229 183 115 114 147 258 30 341 39 64 109 239 166 278 342 257 218 199 146 242 352 274 281 22 358 11 274 302 298 308 305
200 325 345 355 2 13 62 21 338 26 164 245 268 245 253 188 184 147 178 185 199 190 94 220 101 222 74 157 275 21 279 187 208 188 229 244 298 265 299 298 300 316 313 329
207 267 320 333 345 358 73 221 305 34 9 305 347 256 261 217 205 172 148 265 191 165 174 151 146 239 127 194 239 263 279 193 236 360 270 264 309 308 307 323 307 314 311 308
211 240 300 321 331 342 359 151 188 106 114 307 282 342 307 155 141 171 187 134 62 98 81 113 158 180 177 216 257 226 223 46 245 252 277 305 293 303 304 314 311 318 311 327
212 238 277 309 332 338 8 208 215 167 125 242 280 306 269 270 186 205 175 145 125 107 82 114 221 209 166 216 217 247 201 212 245 274 305 289 296 304 320 307 328 329 330 317
216 242 279 302 330 21 33 19 336 184 185 337 311 293 292 299 214 182 165 143 125 136 158 203 221 246 156 237 256 243 207 226 248 282 293 294 301 313 311 332 338 331 322 315
220 248 270 282 301 92 157 198 201 169 113 74 310 320 295 309 328 73 101 134 161 140 193 202 179 228 170 232 254 212 231 263 286 292 297 290 314 313 334 351 330 324 315 313
205 235 248 287 295 360 304 256 233 174 81 74 280 276 335 9 343 56 3 112 76 23 169 85 164 197 175 253 259 261 287 298 295 287 307 285 304 331 341 335 331 328 321 325
158 155 316 39 64 242 248 55 105 84 134 212 179 233 261 353 6 262 21 86 99 287 165 238 150 166 232 241 267 279 287 300 297 304 298 321 335 331 339 335 331 322 316 327
130 82 106 272 218 209 138 354 57 30 284 53 225 232 267 70 13 329 38 29 166 216 241 140 212 254 244 247 261 268 292 298 303 310 326 346 343 354 341 334 319 310 313 333
110 155 208 273 37 90 50 230 170 205 241 190 234 186 208 261 156 227 185 192 199 337 259 184 223 263 259 288 297 284 283 285 311 347 14 356 345 339 337 325 323 331 354 2
176 152 89 344 101 74 205 214 208 211 231 216 185 208 196 255 127 111 235 182 97 249 172 240 218 256 276 299 304 306 302 332 37 53 6 359 359 349 324 329 348 24 14 21
76 66 135 128 167 190 209 198 208 214 205 205 190 208 172 72 119 173 152 193 230 114 208 251 241 261 292 299 305 329 47 57 66 53 18 18 1 344 343 355 7 24 43 64
161 162 195 195 192 232 205 194 190 226 183 167 169 175 176 178 149 167 195 228 111 104 222 238 254 257 285 303 316 347 68 50 50 60 38 16 354 350 7 28 32 45 35 35
182 167 225 217 235 254 244 219 297 259 220 163 114 63 122 178 194 196 156 183 135 204 236 233 243 259 291 323 7 91 76 53 69 59 45 17 12 13 4 350 4 19 16 15
205 234 241 231 349 272 267 219 240 292 326 79 54 108 87 230 188 167 224 126 200 222 218 235 252 271 299 12 83 104 97 91 90 75 62 31 31 19 324 335 350 347 351 346
228 244 247 204 270 244 242 206 239 172 92 139 122 186 220 125 195 239 187 194 199 194 210 213 224 236 244 98 128 124 110 87 80 58 72 56 43 360 346 341 334 344 348 358